Tracking 22836 objects as of 18-Apr-2021
HD Live streaming from Space Station
objects crossing your sky now

USA 167

Track USA 167 now!
USA 167 is classified as:


NORAD ID: 27691
Int'l Code: 2003-008A
Perigee: 35,775.0 km
Apogee: 35,810.4 km
Inclination: 7.2 °
Period: 1,436.0 minutes
Semi major axis: 42163 km
RCS: Unknown
Launch date: March 11, 2003
Source: United States (US)
Launch site: AIR FORCE EASTERN TEST RANGE (AFETR)

Super High Frequency (SHF) for U.S. government and military; sophisticated survivability enhancement; worldwide, longhaul coverage; X-band.
aabbcc
Your satellite tracking list
Your tracking list is empty




NASA's NSSDC Master Catalog

Two Line Element Set (TLE):
1 27691U 03008A   21107.62851807  .00000060  00000-0  00000-0 0  9990
2 27691   7.2213  57.1689 0004207 354.0712 251.0558  1.00275515 14033
Source of the keplerian elements: McCants